Location: T�bingen+AIT
(48.5342°N, 9.0700°E)
Time: 01:50:05
(UTC+02:00)

Cosmos 1184 Rocket - Pass Details

Date: 14 September 2017
Orbit: 421 x 438 km, 81.2° (Epoch: 23 September)

Event Time Altitude Azimuth Distance (km) Brightness Sun altitude
Rises 20:21:05 0° 352° (N) 2,417 6.9 -7.8°
Reaches altitude 10° 20:23:10 10° 356° (N) 1,547 5.9 -8.1°
Maximum altitude 20:26:29 56° 76° (ENE) 523 2.9 -8.7°
Drops below altitude 10° 20:29:48 10° 156° (SSE) 1,540 5.2 -9.2°
Enters shadow 20:31:42 - 160° (SSE) 2,336 6.2 -9.5°
